Tracking 19484 objects as of 19-Jan-2019
HD Live streaming from Space Station
objects crossing your sky now

COSMOS 2162

Track COSMOS 2162 now!
10-day predictions
COSMOS 2162 is classified as:


NORAD ID: 21733
Int'l Code: 1991-068F
Perigee: 1,415.7 km
Apogee: 1,424.9 km
Inclination: 82.6 °
Period: 114.1 minutes
Semi major axis: 7791 km
RCS: 1.159 m2 (large)
Launch date: September 28, 1991
Source: Commonwealth of Independent States (former USSR) (CIS)
Launch site: PLESETSK MISSILE AND SPACE COMPLEX (PKMTR)
aabbcc
Your satellite tracking list
Your tracking list is empty




NASA's NSSDC Master Catalog

Two Line Element Set (TLE):
1 21733U 91068F   19017.81390258  .00000016  00000-0  29329-4 0  9990
2 21733  82.5879 264.9751 0005915 234.2599 194.3222 12.62377828258335
Source of the keplerian elements: AFSPC